EW9451 Weather Reports


Display with metric or nautical units.
time (UTC)temp
F
wind
direction
speed
MPH
gust
MPH
rain 1hr
in
rain 24hr
in
rain mn
in
humidity
%
barometer
mb
20260904174022 71 292 3.0 8.0 0.00 0.04 0.04 80 1005.1
20260904173521 71 286 1.0 5.0 0.00 0.04 0.04 84 1005.1
20260904173023 70 278 0.0 3.0 0.00 0.04 0.04 80 1005.1
20260904172527 70 297 1.0 3.0 0.00 0.04 0.04 81 1005.0
20260904172022 70 306 1.0 3.0 0.00 0.04 0.04 81 1005.1
20260904171530 70 306 1.0 3.0 0.00 0.04 0.04 82 1005.1
20260904171021 70 253 0.0 5.0 0.00 0.04 0.04 83 1005.0
20260904170519 70 293 1.0 5.0 0.00 0.04 0.04 82 1005.0
20260904170019 70 316 1.0 7.0 0.00 0.04 0.04 83 1005.1
20260904165520 70 244 0.0 7.0 0.00 0.04 0.04 80 1005.1
20260904165019 71 299 1.0 6.0 0.00 0.04 0.04 82 1005.2
20260904164520 71 300 2.0 6.0 0.00 0.04 0.04 83 1005.1
20260904164019 71 312 1.0 5.0 0.00 0.04 0.04 81 1005.1
20260904163527 72 293 1.0 5.0 0.00 0.04 0.04 79 1005.0
20260904163021 72 282 2.0 7.0 0.00 0.04 0.04 77 1005.1
20260904162519 72 16 2.0 9.0 0.00 0.04 0.04 84 1005.0
20260904162015 71 349 3.0 9.0 0.00 0.04 0.04 83 1005.0
20260904161516 70 186 2.0 7.0 0.00 0.04 0.04 84 1005.2
20260904161016 70 323 1.0 4.0 0.00 0.04 0.04 85 1005.3
20260904160518 70 355 1.0 8.0 0.00 0.04 0.04 86 1005.3
20260904160013 69 302 3.0 8.0 0.00 0.04 0.04 84 1005.4
20260904155512 69 270 3.0 7.0 0.00 0.04 0.04 86 1005.4
20260904155016 69 311 2.0 4.0 0.00 0.04 0.04 86 1005.5
20260904154513 69 319 2.0 6.0 0.00 0.04 0.04 85 1005.6
20260904154011 69 288 1.0 6.0 0.00 0.04 0.04 85 1005.6
20260904153511 70 273 1.0 8.0 0.00 0.04 0.04 87 1005.6
20260904153011 69 276 2.0 8.0 0.00 0.04 0.04 84 1005.7
20260904152511 70 289 1.0 5.0 0.00 0.04 0.04 86 1005.7
20260904152010 70 242 2.0 6.0 0.00 0.04 0.04 87 1005.6
20260904151511 70 306 2.0 6.0 0.00 0.04 0.04 87 1005.6
20260904151011 70 27 0.0 4.0 0.00 0.04 0.04 86 1005.6
20260904150508 69 238 1.0 4.0 0.00 0.04 0.04 84 1005.6
20260904150007 69 290 1.0 5.0 0.00 0.04 0.04 86 1005.6
20260904145507 69 257 0.0 5.0 0.00 0.04 0.04 89 1005.6
20260904145006 69 321 2.0 5.0 0.00 0.04 0.04 90 1005.5
20260904144505 68 355 2.0 5.0 0.00 0.04 0.04 87 1005.6
20260904144004 68 297 0.0 4.0 0.00 0.04 0.04 91 1005.6
20260904143504 68 275 2.0 6.0 0.00 0.04 0.04 87 1005.5
20260904143007 68 276 2.0 6.0 0.00 0.04 0.04 88 1005.5
20260904142502 68 255 2.0 5.0 0.00 0.04 0.04 92 1005.6
20260904142004 67 304 1.0 7.0 0.00 0.04 0.04 92 1005.6
20260904141604 66 284 0.0 7.0 0.00 0.04 0.04 91 1005.6
20260904141059 66 221 1.0 4.0 0.00 0.04 0.04 94 1005.6
20260904140557 66 300 1.0 4.0 0.00 0.04 0.04 94 1005.6
20260904140057 66 327 2.0 5.0 0.00 0.04 0.04 95 1005.6
20260904135600 65 285 1.0 5.0 0.00 0.04 0.04 95 1005.6
20260904135055 65 296 2.0 5.0 0.00 0.04 0.04 95 1005.6
20260904134553 65 277 1.0 7.0 0.00 0.04 0.04 95 1005.6
20260904134053 65 290 1.0 5.0 0.00 0.04 0.04 95 1005.5
20260904133553 65 334 2.0 5.0 0.00 0.04 0.04 95 1005.6
20260904133053 65 284 1.0 6.0 0.00 0.04 0.04 96 1005.6
20260904132553 65 285 2.0 4.0 0.00 0.04 0.04 97 1005.5
20260904132053 65 300 1.0 3.0 0.00 0.04 0.04 97 1005.5
20260904131555 65 217 1.0 3.0 0.00 0.04 0.04 97 1005.5
20260904131051 64 234 0.0 2.0 0.00 0.04 0.04 97 1005.6
20260904130551 64 299 0.0 1.0 0.00 0.04 0.04 97 1005.6
20260904130051 64 299 0.0 3.0 0.00 0.04 0.04 97 1005.6
20260904125551 64 299 0.0 3.0 0.00 0.04 0.04 97 1005.6
20260904125051 64 229 0.0 2.0 0.00 0.04 0.04 98 1005.6
20260904124600 64 23 0.0 2.0 0.00 0.04 0.04 98 1005.7
20260904124054 64 113 0.0 1.0 0.00 0.04 0.04 98 1005.7
20260904123550 64 113 0.0 1.0 0.00 0.04 0.04 98 1005.8
20260904123049 64 113 0.0 1.0 0.00 0.04 0.04 98 1005.8
20260904122549 64 113 0.0 1.0 0.00 0.04 0.04 98 1005.7
20260904122049 64 113 0.0 1.0 0.00 0.04 0.04 98 1005.8
20260904121549 63 113 0.0 1.0 0.00 0.04 0.04 98 1005.7
20260904121047 63 113 0.0 1.0 0.00 0.04 0.04 98 1005.7
20260904120552 63 113 0.0 0.0 0.00 0.04 0.04 98 1005.7
20260904120048 63 113 0.0 0.0 0.00 0.04 0.04 98 1005.7
20260904115547 63 113 0.0 0.0 0.00 0.04 0.04 98 1005.8
20260904115046 63 113 0.0 0.0 0.00 0.04 0.04 98 1005.6
20260904114547 62 113 0.0 0.0 0.00 0.04 0.04 98 1005.6
20260904114045 62 113 0.0 1.0 0.00 0.04 0.04 98 1005.6
20260904113545 62 113 0.0 1.0 0.00 0.04 0.04 98 1005.6
20260904113049 62 113 0.0 0.0 0.00 0.04 0.04 98 1005.4
20260904112543 62 113 0.0 1.0 0.00 0.04 0.04 98 1005.2
20260904112049 61 113 0.0 1.0 0.00 0.04 0.04 98 1005.2
20260904111543 61 113 0.0 1.0 0.00 0.04 0.04 97 1005.1
20260904111044 61 113 0.0 1.0 0.00 0.04 0.04 97 1005.0
20260904110543 61 113 0.0 1.0 0.00 0.04 0.04 97 1005.1
20260904110043 61 113 0.0 0.0 0.00 0.04 0.04 97 1005.1
20260904105543 61 113 0.0 0.0 0.00 0.04 0.04 97 1005.1
20260904105143 61 113 0.0 0.0 0.00 0.04 0.04 97 1005.0
20260904104542 61 113 0.0 0.0 0.00 0.04 0.04 97 1005.0
20260904104041 61 113 0.0 0.0 0.00 0.04 0.04 97 1004.9
20260904103542 61 113 0.0 2.0 0.00 0.04 0.04 97 1004.8
20260904103141 61 113 0.0 2.0 0.00 0.04 0.04 97 1004.8
20260904102540 61 113 0.0 0.0 0.00 0.04 0.04 96 1004.8
20260904102040 61 113 0.0 0.0 0.00 0.04 0.04 96 1004.7
20260904101539 61 113 0.0 1.0 0.00 0.04 0.04 96 1004.7
20260904101042 61 113 0.0 2.0 0.00 0.04 0.04 96 1004.7
20260904100540 61 113 0.0 2.0 0.00 0.04 0.04 96 1004.7
20260904100038 61 113 0.0 1.0 0.00 0.04 0.04 96 1004.6
20260904095537 61 113 0.0 1.0 0.00 0.04 0.04 96 1004.7
20260904095039 61 113 0.0 2.0 0.00 0.04 0.04 96 1004.6
20260904094542 62 113 0.0 2.0 0.00 0.04 0.04 96 1004.6
20260904094035 62 113 0.0 2.0 0.00 0.04 0.04 96 1004.6
20260904093537 62 113 0.0 1.0 0.00 0.04 0.04 96 1004.6
20260904093035 62 113 0.0 0.0 0.00 0.04 0.04 96 1004.5
20260904092535 62 113 0.0 1.0 0.00 0.04 0.04 96 1004.5
20260904092033 62 113 0.0 1.0 0.00 0.04 0.04 96 1004.5
20260904091533 63 113 0.0 0.0 0.00 0.04 0.04 96 1004.4
20260904091032 63 113 0.0 0.0 0.00 0.04 0.04 96 1004.4
20260904090534 63 113 0.0 0.0 0.00 0.04 0.04 96 1004.5
20260904090031 63 113 0.0 1.0 0.00 0.04 0.04 96 1004.4
20260904085530 63 113 0.0 1.0 0.00 0.04 0.04 96 1004.5
20260904085033 63 113 0.0 0.0 0.00 0.04 0.04 96 1004.4
20260904084530 63 113 0.0 0.0 0.00 0.04 0.04 96 1004.4
20260904084032 63 113 0.0 1.0 0.00 0.04 0.04 97 1004.4
20260904083529 63 113 0.0 1.0 0.00 0.04 0.04 97 1004.4
20260904083031 63 113 0.0 0.0 0.00 0.04 0.04 96 1004.5
20260904082528 63 113 0.0 0.0 0.00 0.04 0.04 96 1004.5
20260904082028 63 113 0.0 1.0 0.00 0.04 0.04 97 1004.5
20260904081527 63 113 0.0 1.0 0.00 0.04 0.04 97 1004.5
20260904081027 63 113 0.0 0.0 0.00 0.04 0.04 97 1004.5
20260904080527 63 113 0.0 0.0 0.00 0.04 0.04 97 1004.4
20260904080027 63 113 0.0 0.0 0.00 0.04 0.04 96 1004.5
20260904075530 63 113 0.0 0.0 0.00 0.05 0.04 96 1004.5
20260904075026 63 113 0.0 1.0 0.00 0.05 0.04 96 1004.4
20260904074539 63 113 0.0 0.0 0.00 0.05 0.04 96 1004.4
20260904074025 64 113 0.0 0.0 0.00 0.05 0.04 96 1004.4
20260904073525 64 113 0.0 0.0 0.00 0.05 0.04 96 1004.4
20260904073025 64 113 0.0 1.0 0.00 0.05 0.04 96 1004.5
20260904072524 64 113 0.0 1.0 0.00 0.05 0.04 96 1004.5
20260904072024 64 113 0.0 1.0 0.00 0.05 0.04 96 1004.6
20260904071530 64 113 0.0 0.0 0.00 0.05 0.04 96 1004.5
20260904071025 64 113 0.0 0.0 0.00 0.05 0.04 96 1004.5
20260904070526 64 113 0.0 0.0 0.00 0.05 0.04 96 1004.4
20260904070024 64 113 0.0 0.0 0.00 0.05 0.04 96 1004.4
20260904065523 64 113 0.0 0.0 0.00 0.15 0.04 96 1004.5
20260904065024 64 113 0.0 1.0 0.00 0.15 0.04 96 1004.5
20260904064522 64 113 0.0 1.0 0.00 0.15 0.04 96 1004.4
20260904064022 64 113 0.0 1.0 0.00 0.15 0.04 96 1004.5
20260904063522 64 113 0.0 1.0 0.00 0.15 0.04 96 1004.6
20260904063021 64 113 0.0 0.0 0.00 0.15 0.04 96 1004.6
20260904062523 64 113 0.0 0.0 0.00 0.15 0.04 96 1004.6
20260904062021 64 113 0.0 0.0 0.00 0.15 0.04 96 1004.7
20260904061521 64 113 0.0 0.0 0.00 0.15 0.04 95 1004.7
20260904061022 64 113 0.0 0.0 0.00 0.15 0.04 95 1004.6
20260904060520 64 113 0.0 2.0 0.00 0.15 0.04 96 1004.7
20260904060019 64 113 0.0 2.0 0.00 0.15 0.04 96 1004.8
20260904055519 64 113 0.0 0.0 0.00 0.23 0.04 96 1004.8
20260904055019 64 113 0.0 1.0 0.01 0.23 0.04 96 1004.9
20260904054519 64 113 0.0 2.0 0.04 0.23 0.04 96 1004.9
20260904054017 64 113 0.0 2.0 0.04 0.23 0.04 96 1004.9
20260904053516 64 113 0.0 2.0 0.04 0.23 0.04 96 1004.9
20260904053021 64 113 0.0 2.0 0.04 0.23 0.04 95 1005.0
20260904052516 64 113 1.0 2.0 0.04 0.23 0.04 95 1004.9
20260904052015 64 165 0.0 2.0 0.04 0.23 0.04 95 1005.0
20260904051519 64 165 0.0 2.0 0.04 0.23 0.04 96 1005.1
20260904051014 64 165 0.0 2.0 0.04 0.23 0.04 96 1005.1
20260904050514 64 165 0.0 2.0 0.04 0.23 0.04 95 1005.1
20260904050014 64 165 0.0 4.0 0.04 0.23 0.04 95 1005.1
20260904045514 64 268 0.0 4.0 0.04 0.57 0.04 95 1005.2
20260904045012 64 35 0.0 4.0 0.03 0.56 0.03 95 1005.2
20260904044512 64 282 1.0 2.0 0.00 0.54 0.00 95 1005.3
20260904044010 64 292 0.0 1.0 0.00 0.54 0.00 94 1005.2
20260904043510 64 292 0.0 1.0 0.00 0.54 0.00 94 1005.1
20260904043010 64 292 0.0 1.0 0.00 0.54 0.00 94 1005.2
20260904042509 64 292 0.0 0.0 0.00 0.54 0.00 94 1005.3
20260904042009 64 292 0.0 1.0 0.00 0.54 0.00 94 1005.4
20260904041508 64 292 0.0 1.0 0.00 0.54 0.00 94 1005.4
20260904041007 65 292 0.0 0.0 0.00 0.54 0.00 94 1005.4
20260904040507 65 292 0.0 0.0 0.00 0.54 0.00 94 1005.4
20260904040006 65 292 0.0 2.0 0.00 0.73 0.54 93 1005.5
20260904035510 65 292 0.0 2.0 0.00 0.73 0.54 93 1005.5
20260904035006 65 292 0.0 0.0 0.00 0.73 0.54 93 1005.5
20260904034505 65 292 0.0 0.0 0.00 0.73 0.54 93 1005.4
20260904034007 65 292 0.0 0.0 0.00 0.73 0.54 93 1005.3
20260904033504 65 292 0.0 2.0 0.00 0.73 0.54 93 1005.3
20260904033004 65 292 0.0 2.0 0.00 0.73 0.54 93 1005.3
20260904032504 65 255 0.0 2.0 0.00 0.73 0.54 93 1005.2
20260904032005 65 194 0.0 0.0 0.00 0.73 0.54 93 1005.3
20260904031504 65 194 0.0 0.0 0.00 0.73 0.54 93 1005.3
20260904031004 65 194 0.0 0.0 0.00 0.73 0.54 93 1005.4
20260904030504 65 194 0.0 0.0 0.00 0.73 0.54 93 1005.3
20260904030004 66 194 0.0 2.0 0.00 0.81 0.54 93 1005.4
20260904025505 66 194 0.0 2.0 0.00 0.81 0.54 93 1005.3
20260904025004 66 194 0.0 0.0 0.00 0.81 0.54 93 1005.4
20260904024504 66 194 0.0 0.0 0.00 0.81 0.54 93 1005.4
20260904024003 66 194 0.0 0.0 0.00 0.81 0.54 93 1005.4
20260904023504 66 194 0.0 2.0 0.00 0.81 0.54 93 1005.4
20260904023003 66 194 0.0 2.0 0.00 0.81 0.54 93 1005.4
20260904022503 66 194 0.0 2.0 0.00 0.81 0.54 92 1005.5
20260904022003 66 194 0.0 0.0 0.00 0.81 0.54 93 1005.6
20260904021504 66 194 0.0 0.0 0.00 0.81 0.54 92 1005.5
20260904021002 66 194 0.0 0.0 0.00 0.81 0.54 92 1005.5
20260904020503 66 194 0.0 0.0 0.00 0.81 0.54 92 1005.5
20260904020003 66 194 0.0 0.0 0.00 0.81 0.54 92 1005.6
20260904015502 66 194 0.0 0.0 0.00 0.81 0.54 92 1005.7
20260904015004 67 194 0.0 0.0 0.00 0.81 0.54 92 1005.7
20260904014502 67 194 0.0 0.0 0.00 0.81 0.54 92 1005.6
20260904014003 67 194 0.0 1.0 0.00 0.81 0.54 91 1005.7
20260904013502 67 195 0.0 1.0 0.00 0.81 0.54 91 1005.7
20260904013001 67 195 0.0 1.0 0.00 0.81 0.54 91 1005.6
20260904012501 67 195 0.0 1.0 0.00 0.81 0.54 91 1005.8
20260904012002 67 195 0.0 0.0 0.00 0.81 0.54 91 1005.7
20260904011504 68 195 0.0 0.0 0.00 0.81 0.54 91 1005.6
20260904011003 68 195 0.0 0.0 0.00 0.81 0.54 92 1005.6
20260904010600 68 195 0.0 0.0 0.00 0.81 0.54 91 1005.7
20260904010100 68 195 0.0 0.0 0.00 0.81 0.54 91 1005.6
20260904005559 68 195 0.0 1.0 0.00 0.81 0.54 91 1005.5
20260904005100 68 195 0.0 1.0 0.00 0.81 0.54 91 1005.5
20260904004603 68 277 0.0 1.0 0.00 0.81 0.54 91 1005.4
20260904004059 68 277 0.0 1.0 0.00 0.81 0.54 90 1005.3
20260904003559 68 277 0.0 0.0 0.00 0.81 0.54 89 1005.2
20260904003102 69 277 0.0 0.0 0.00 0.81 0.54 90 1005.1
20260904002559 69 277 0.0 0.0 0.00 0.81 0.54 90 1005.0
20260904002103 69 277 0.0 0.0 0.00 0.81 0.54 90 1005.0
20260904001600 69 277 0.0 0.0 0.00 0.81 0.54 90 1004.9
20260904001058 69 277 0.0 0.0 0.00 0.81 0.54 90 1004.9
20260904000602 69 277 0.0 0.0 0.00 0.81 0.54 89 1005.0
20260904000140 70 277 0.0 0.0 0.00 0.81 0.54 88 1004.9
20260903235558 70 277 0.0 0.0 0.00 0.81 0.54 89 1004.9
20260903235058 70 277 0.0 0.0 0.00 0.81 0.54 88 1004.7
20260903234558 70 277 0.0 0.0 0.00 0.81 0.54 87 1004.5
20260903234057 71 277 0.0 2.0 0.00 0.81 0.54 87 1004.5
20260903233559 71 277 0.0 2.0 0.00 0.81 0.54 85 1004.6
20260903233057 71 277 0.0 0.0 0.00 0.81 0.54 85 1004.6
20260903232556 71 277 0.0 0.0 0.00 0.81 0.54 85 1004.5
20260903232100 72 277 0.0 0.0 0.00 0.81 0.54 84 1004.6
20260903231613 72 277 0.0 1.0 0.00 0.81 0.54 84 1004.6
20260903231056 72 277 0.0 1.0 0.00 0.81 0.54 83 1004.7
20260903230556 73 277 0.0 0.0 0.00 0.81 0.54 83 1004.8
20260903230104 73 277 0.0 0.0 0.00 0.81 0.54 82 1004.6
20260903225558 73 277 0.0 0.0 0.00 0.81 0.54 81 1004.6
20260903225055 73 277 0.0 0.0 0.00 0.81 0.54 81 1004.3
20260903224558 74 277 0.0 0.0 0.00 0.81 0.54 80 1004.5
20260903224058 74 277 0.0 0.0 0.00 0.81 0.54 79 1004.6
20260903223557 74 277 0.0 0.0 0.00 0.81 0.54 79 1004.5
20260903223056 75 277 0.0 0.0 0.00 0.81 0.54 78 1004.7
20260903222557 75 277 0.0 1.0 0.00 0.81 0.54 78 1004.7
20260903222054 76 277 0.0 1.0 0.00 0.81 0.54 79 1004.7
20260903221555 76 277 0.0 1.0 0.00 0.81 0.54 78 1004.8
20260903221054 77 277 0.0 2.0 0.00 0.81 0.54 77 1004.8
20260903220553 77 294 0.0 3.0 0.00 0.81 0.54 77 1004.8
20260903220108 77 261 0.0 4.0 0.00 0.81 0.54 77 1004.8
20260903215556 78 263 1.0 4.0 0.00 0.81 0.54 75 1004.8
20260903215053 78 292 1.0 4.0 0.00 0.81 0.54 75 1004.9
20260903214557 79 333 0.0 4.0 0.00 0.81 0.54 74 1004.8
20260903214052 79 309 1.0 3.0 0.00 0.81 0.54 75 1004.6
20260903213552 78 311 0.0 4.0 0.00 0.81 0.54 76 1004.5
20260903213057 78 283 1.0 4.0 0.00 0.81 0.54 76 1004.6
20260903212552 78 277 1.0 3.0 0.00 0.81 0.54 77 1004.6
20260903212051 78 258 0.0 4.0 0.00 0.81 0.54 76 1004.5
20260903211551 78 309 1.0 4.0 0.00 0.81 0.54 75 1004.5
20260903211051 78 344 0.0 4.0 0.00 0.81 0.54 77 1004.4
20260903210550 78 341 0.0 5.0 0.00 0.81 0.54 79 1004.5
20260903210052 78 288 1.0 7.0 0.00 0.81 0.54 79 1004.4
20260903205552 78 288 3.0 7.0 0.00 0.81 0.54 79 1004.4
20260903205050 78 319 2.0 4.0 0.00 0.81 0.54 79 1004.3
20260903204549 77 265 2.0 4.0 0.00 0.81 0.54 81 1004.4
20260903204048 77 285 1.0 5.0 0.00 0.81 0.54 79 1004.3
20260903203553 78 319 2.0 6.0 0.00 0.81 0.54 78 1004.3
20260903203049 80 304 1.0 5.0 0.00 0.81 0.54 77 1004.3
20260903202550 80 201 1.0 8.0 0.00 0.81 0.54 75 1004.3
20260903202048 81 227 1.0 5.0 0.00 0.81 0.54 77 1004.4
20260903201548 81 313 1.0 8.0 0.00 0.81 0.54 74 1004.3
20260903201046 81 318 1.0 8.0 0.00 0.81 0.54 69 1004.3
20260903200548 81 171 2.0 7.0 0.00 0.81 0.54 74 1004.3
20260903200045 80 234 2.0 7.0 0.00 0.81 0.54 72 1004.5
20260903195543 80 126 2.0 7.0 0.00 0.81 0.54 73 1004.5
20260903195043 80 315 1.0 8.0 0.00 0.81 0.54 72 1004.5
20260903194548 79 198 3.0 8.0 0.00 0.81 0.54 73 1004.5
20260903194039 79 86 0.0 6.0 0.00 0.81 0.54 71 1004.5
20260903193538 79 174 1.0 9.0 0.00 0.81 0.54 73 1004.6
20260903193043 79 174 3.0 8.0 0.00 0.81 0.54 74 1004.7
20260903192537 78 129 0.0 9.0 0.00 0.81 0.54 76 1004.7
20260903192039 78 180 3.0 9.0 0.00 0.81 0.54 76 1004.7
20260903191543 77 82 2.0 9.0 0.00 0.81 0.54 78 1004.7
20260903191035 77 103 0.0 7.0 0.00 0.81 0.54 76 1004.7
20260903190535 78 112 2.0 9.0 0.00 0.81 0.54 76 1004.8
20260903190047 78 135 1.0 9.0 0.00 0.81 0.54 75 1004.7
20260903185535 78 268 2.0 8.0 0.00 0.81 0.54 78 1004.7
20260903185034 78 309 1.0 8.0 0.00 0.81 0.54 77 1004.8
20260903184533 78 305 1.0 8.0 0.00 0.81 0.54 75 1004.8
20260903184032 78 159 3.0 9.0 0.00 0.81 0.54 76 1004.7
20260903183532 78 132 3.0 8.0 0.00 0.81 0.54 78 1004.7
20260903183030 77 161 3.0 7.0 0.00 0.81 0.54 80 1004.7
20260903182532 77 58 1.0 8.0 0.00 0.81 0.54 78 1004.8
20260903182028 76 105 2.0 8.0 0.00 0.81 0.54 78 1004.9
20260903181540 76 96 2.0 7.0 0.00 0.81 0.54 78 1004.9
20260903181030 77 283 1.0 8.0 0.00 0.81 0.54 76 1005.0
20260903180528 77 232 3.0 8.0 0.00 0.81 0.54 76 1005.0
20260903180027 78 165 2.0 8.0 0.00 0.81 0.54 77 1005.0
20260903175527 77 105 2.0 7.0 0.00 0.81 0.54 80 1004.9
20260903175024 77 288 2.0 9.0 0.00 0.81 0.54 80 1004.9
20260903174523 77 223 0.0 7.0 0.00 0.81 0.54 81 1005.0